OBJECT CC, 66740

Orbit data source: Space-Track

You're viewing an Uncataloged Satellite

Recently launched and/or uncataloged satellites may have evolving metadata. Metadata may include but not limited to: Owner, Maufacturer, Bus, Motor, and Mission.

OBJECT CC, 66740 is a satellite in SSO that was launched on Fri, 28 Nov 2025 UTC via an FALCON 9 launch vehicle from the Air Force Western Test Range (AFWTR). Unknown objects in Earth's orbit typically refer to objects detected orbiting the Earth but have not yet been identified or cataloged. These objects could be anything from previously untracked satellites, spent rocket stages, debris from satellite collisions, or even natural meteoroids temporarily captured by Earth's gravity.

Loading next visibility...
Identifier
66740, 2025-276CC
Orbit
SSO
Country
Flag of TBDTBD
Related business
None
Manufacturer
Unknown
Mission
Operational Amateur Technology
Bus & Motor
Unknown
Mass
Unknown
Launch date (UTC)
2025-11-28 (2 months ago)
Launch vehicle
FALCON 9
Launch site
Air Force Western Test Range (AFWTR)
Object type
Unknown
Shape & HBR
Box, 0.1 m
Radar Cross Section
0.015 m²

Expand to show TLE details & history
Last TLE update: 21 hours ago

TLE from 21 hours ago
0 OBJECT CC
1 66740U 25276CC  26034.20644156  .00008471  00000-0  41351-3 0  9995
2 66740  97.4347 110.0922 0004711 101.6606 258.5157 15.18515357 10080
Epoch: 2026-02-03T04:57Z
TLE epoch observation values (Epoch: 2026-02-03T04:57:16.550Z)
Latitude
-0.00006°
Longitude
-97.61745°
Altitude
514.062 km
Speed
7.606 km/s
True Right ascension
07h 20m 22s
True Declination
0° 00' 00"
Sunlit
Object was in full shadow at epoch
Visualization orbit readout
Latitude
Unknown
Longitude
Unknown
Altitude
Unknown
Speed
Unknown
Apparent Right ascension
Unknown
Apparent Declination
Unknown
Sunlit
N/A
Visualization observer readout
Local Sidereal Time
04:16:30
Azimuth
Unknown
Elevation
Unknown
Doppler factor
Unknown
Orbital elements
Apogee altitude
510.54 km
Perigee altitude
504.052 km
Semi-major axis
6,885.433 km
Eccentricity
0.00047
Inclination
97.4347°
RAAN
110.0922°
Arg. of periapsis
101.6606°
True anomaly
258.4628°
Mean anomaly
258.5157°
Eccentric anomaly
258.48925°
Mean motion
3.7988 °/min
Orbital period
94.77 mins
BSTAR
0.00041351
Loading maneuver chart data...
Computing Atmospheric mass density...
Loading historical data...
Loading historical data...
Loading historical data...
Loading historical data...
Loading historical data...
Loading historical data...
Loading historical data...

Documentation

Showing up to 5 results
|